Retour au catalogue

FREGAT DEB

ActifUNKNOWN
NORAD 46406·DEBRIS·🇷🇺 Russia

Lancé Jul 18, 2011 depuis Baikonur Cosmodrome

Loading…

Prochains Passages (prochaines 24 heures)

TLE

FraisSource: Space-Track

Époque: Sep 1, 2026, 22:27 UTC

1 46406U 11037LM  26244.93584443  .00000432  00000-0  14736-2 0  9992
2 46406  51.5824  89.8923 2012126 234.4831 105.1515 10.21310656226840

Suivez FREGAT DEB en temps réel avec AllMySat

Download on the App Store